Theta_e
328 327 325 324 325 326 324 322 324 322 320 321 322 321 321 320 320 319 319 318 317 316 316 316 315 313 313 316 317 317 318 318 318 318 317 315 314 315 317 319 321 321 319 319 318 318 318 319 319 319 319 319 320 321 322 323 324 324 324 324 324 324 324 324 323 323 325 326 325 326 326 326 327 327 327 327 327 328 328 328 328 328 328 329 329
328 327 325 323 323 325 323 322 323 323 320 318 320 320 320 320 320 319 318 316 314 312 313 313 311 312 315 318 319 320 320 320 321 320 318 316 314 314 316 318 320 320 319 319 318 317 318 318 318 318 318 319 319 320 320 321 323 325 326 327 327 327 327 326 325 323 323 325 325 326 327 327 327 328 328 328 328 328 328 328 329 329 329 329 329
328 327 326 324 324 323 322 323 323 324 321 318 316 316 316 316 315 315 313 312 310 308 309 310 312 315 316 316 318 320 321 321 321 321 319 318 315 316 317 318 320 321 320 319 318 318 318 318 318 318 318 318 318 318 319 319 320 322 323 325 326 326 326 326 325 323 322 323 324 326 326 327 327 327 328 328 327 328 328 328 329 329 329 328 328
328 327 327 325 325 323 322 323 324 323 323 321 317 314 313 312 311 310 309 308 307 307 309 313 314 314 313 313 316 318 319 320 321 320 319 317 316 318 318 318 319 320 320 319 318 319 319 318 318 317 317 317 317 317 317 318 319 320 321 321 321 321 321 321 321 321 320 321 323 324 325 326 327 327 327 327 327 328 328 328 328 328 328 328 328
328 329 329 327 325 324 323 322 324 324 324 324 319 314 313 313 312 311 309 308 307 308 311 314 313 312 311 311 314 316 319 321 321 320 318 316 317 318 318 318 318 319 319 319 319 319 319 318 318 317 316 316 316 316 317 317 318 319 320 320 320 319 319 318 318 318 319 321 322 324 324 325 326 327 327 326 327 327 327 328 327 328 328 327 327
330 330 330 329 326 326 325 323 323 324 324 325 321 315 313 315 316 314 312 309 307 310 313 313 312 312 311 311 312 315 319 321 321 320 318 316 317 318 318 318 318 318 318 318 319 319 319 318 318 316 316 315 316 316 317 318 318 319 319 320 320 320 320 319 318 318 319 321 323 324 325 325 326 326 326 325 327 327 327 327 327 327 327 327 327
330 331 330 330 328 327 326 325 324 324 324 324 322 315 313 317 317 316 314 311 308 310 312 312 312 312 312 312 312 314 317 320 320 320 318 317 318 318 318 318 317 318 319 318 319 320 319 319 318 317 316 315 315 315 316 318 319 319 320 320 320 320 320 320 319 319 320 322 323 324 325 326 326 326 325 325 326 327 327 327 327 326 326 326 326
330 331 330 330 330 328 327 326 324 324 324 324 323 316 314 319 318 317 316 312 308 310 312 312 312 312 312 312 312 313 315 316 317 318 318 318 318 318 318 317 316 317 318 319 319 320 320 319 318 317 316 315 315 315 316 318 318 319 320 320 321 320 320 320 320 320 320 322 323 324 325 326 326 326 326 326 325 325 326 326 326 325 325 324 323
329 330 330 329 329 329 328 327 325 324 323 323 323 318 315 316 316 317 316 312 308 309 312 312 312 313 313 312 311 311 311 312 314 316 317 317 317 318 318 318 317 316 316 317 318 319 319 319 318 316 315 315 315 315 317 318 319 319 319 319 320 321 321 321 321 321 321 322 323 324 325 325 326 326 326 326 325 324 325 325 326 325 323 322 321
328 329 329 329 328 329 329 328 326 325 324 324 324 322 319 316 316 318 316 312 309 309 311 312 312 313 313 312 310 310 310 311 313 315 315 316 317 319 320 320 320 318 317 316 316 317 317 318 318 316 315 315 315 316 318 319 319 318 318 318 319 321 321 322 322 322 322 322 323 324 324 324 325 325 325 325 325 325 324 325 326 325 323 321 321
328 328 329 329 329 329 329 329 327 327 326 325 324 325 324 320 319 319 317 313 309 308 311 311 312 313 313 312 311 310 310 311 312 313 315 317 318 320 321 321 320 320 319 318 317 316 315 317 317 315 314 315 316 317 318 319 319 318 317 317 317 319 321 322 322 323 323 323 323 323 323 324 324 325 325 324 325 324 325 325 325 324 323 321 320
328 328 328 329 329 329 328 328 328 327 327 326 325 324 325 324 322 321 318 313 310 308 310 311 312 313 314 313 311 310 310 311 312 313 315 317 319 320 321 321 321 320 320 319 318 317 315 315 316 315 314 315 316 317 318 318 319 318 318 317 316 318 320 321 322 323 323 324 324 323 323 324 324 324 324 324 325 324 324 324 324 324 322 321 320
327 328 328 328 329 330 329 328 328 327 327 326 326 325 325 325 324 323 319 314 310 308 309 310 311 313 314 314 313 310 309 310 311 313 315 316 318 320 321 321 320 320 319 319 318 317 315 315 315 315 315 316 318 318 318 319 319 319 318 317 316 316 317 318 320 322 322 323 323 323 322 322 323 324 324 324 324 324 323 323 324 323 322 321 320
327 326 327 327 329 330 329 328 327 327 326 326 326 325 325 325 325 323 320 316 312 309 308 310 311 312 314 314 314 312 310 309 309 311 313 315 317 320 320 320 319 319 319 318 317 316 315 315 315 315 316 318 319 319 319 319 319 318 318 317 316 315 316 316 317 319 321 322 322 322 321 321 321 322 323 324 323 323 324 323 323 323 322 321 321
325 325 326 327 328 329 329 328 327 326 326 326 326 326 326 325 326 323 321 317 313 310 308 309 310 312 313 314 314 312 310 309 309 309 311 314 317 318 318 318 318 318 317 316 315 314 314 315 315 315 316 318 319 319 319 319 319 318 317 316 315 314 315 315 315 317 319 321 322 322 321 320 319 319 321 323 323 323 323 323 323 322 321 321 320
324 325 325 326 327 328 328 328 328 327 326 326 326 327 327 326 326 325 322 318 314 310 309 308 309 311 312 313 314 314 311 309 308 308 310 313 315 316 317 318 318 316 315 313 312 312 313 315 315 314 315 318 319 319 319 318 318 318 316 315 314 313 313 314 315 316 318 319 320 321 320 320 319 318 320 322 323 322 323 323 322 321 321 320 320
325 325 325 325 326 327 328 328 327 327 327 326 326 326 327 327 327 326 323 319 315 311 310 308 308 309 311 313 313 313 312 309 308 308 309 312 313 315 316 317 316 315 313 312 311 311 313 315 315 313 314 317 318 318 318 318 318 317 316 315 313 312 312 313 315 315 317 318 319 320 319 319 318 318 319 322 322 322 323 322 322 321 320 320 320
325 326 325 326 326 326 327 327 327 327 326 325 325 326 327 327 327 326 323 318 315 314 313 311 309 308 309 311 312 313 312 310 308 308 309 311 313 314 316 316 315 314 314 313 311 311 314 315 314 313 314 316 317 317 317 317 317 316 315 314 312 311 311 313 314 315 316 316 318 319 318 318 317 316 317 320 321 322 322 322 321 321 320 320 320
324 325 325 325 326 326 326 327 327 326 325 325 324 325 327 327 326 326 323 320 318 319 319 316 312 309 309 310 311 312 312 311 309 308 309 311 313 315 315 315 315 314 314 313 312 312 313 315 314 314 314 315 316 316 316 316 316 314 313 312 311 310 310 312 313 314 315 315 315 316 317 317 316 314 314 317 320 320 320 321 321 321 321 320 319
324 324 323 324 324 325 325 325 326 326 325 325 324 325 326 327 326 326 324 323 323 323 324 322 318 314 311 309 310 311 313 312 310 309 310 312 313 315 315 315 315 315 314 314 313 313 313 314 314 313 314 315 315 315 315 314 313 311 311 310 309 310 310 310 311 312 313 313 312 313 314 314 314 313 313 315 317 319 319 319 319 319 320 320 319
323 323 322 322 322 323 323 324 324 325 325 325 324 325 325 326 326 326 325 325 325 325 325 325 323 320 316 310 309 311 313 313 311 310 310 312 313 315 315 316 315 315 315 314 313 313 314 314 314 313 314 314 315 314 313 312 309 308 309 309 308 308 309 308 309 309 309 309 309 309 311 312 312 312 312 312 313 316 317 319 318 318 318 320 319
323 323 322 322 322 322 322 323 323 323 324 323 324 324 324 325 325 325 324 325 326 326 326 326 326 325 322 315 310 310 312 313 312 310 311 312 313 314 316 316 316 315 315 314 312 313 314 314 314 313 314 314 314 313 311 309 307 305 306 307 306 306 307 306 306 306 306 307 307 307 309 311 310 310 310 308 308 309 311 315 316 316 317 319 319
322 323 323 322 323 322 322 323 322 322 322 322 323 323 323 324 323 323 323 324 325 326 326 327 327 327 327 322 314 310 310 312 312 311 311 312 313 314 315 316 316 315 315 313 311 312 313 314 314 313 313 313 313 311 309 307 304 303 303 303 303 303 303 303 303 304 304 305 306 306 307 308 308 308 307 305 303 303 306 310 313 315 317 319 318
323 323 324 323 323 323 323 323 322 322 322 322 323 323 323 323 323 323 322 323 324 325 326 327 327 327 328 327 321 312 309 312 312 311 311 312 313 313 314 315 316 315 314 312 310 310 311 313 313 312 312 312 311 310 309 305 302 301 300 300 300 300 300 300 300 301 301 302 303 304 304 305 306 306 304 302 301 304 308 313 315 317 318 317 314
322 322 323 323 323 323 323 322 322 323 322 323 323 322 322 322 322 322 322 322 323 324 325 326 327 327 327 329 326 318 310 311 312 311 311 312 312 313 313 315 315 314 312 310 309 309 310 311 312 311 310 310 310 310 309 304 300 301 299 298 299 299 299 299 299 299 299 300 301 301 301 302 303 303 303 302 302 307 312 315 316 316 315 313 311
322 322 322 322 322 323 322 322 322 322 322 323 323 323 323 322 323 323 322 322 322 323 324 325 327 328 328 328 328 323 313 310 311 311 310 312 312 311 312 313 314 313 310 309 308 308 309 310 310 309 309 310 310 310 308 304 301 300 299 298 299 298 298 298 298 298 298 298 299 299 299 300 301 302 303 302 303 308 312 314 313 313 311 310 309
322 322 322 322 323 323 323 323 323 322 322 322 323 323 324 324 324 324 323 323 323 323 323 324 326 327 328 328 329 327 318 311 311 311 310 311 312 311 311 312 312 311 309 307 307 308 308 309 308 308 308 310 310 309 308 305 301 300 299 298 298 298 298 298 298 298 298 298 298 298 298 298 299 301 303 302 302 306 309 310 310 310 308 307 306
322 322 322 322 322 321 321 322 322 322 322 322 322 322 323 324 324 324 324 324 324 324 324 325 326 327 328 329 328 328 322 314 311 310 310 312 312 311 311 311 311 310 308 307 306 307 308 307 306 306 307 308 309 309 309 306 301 300 300 299 298 298 297 297 297 297 297 297 297 297 297 297 298 300 302 302 302 303 304 305 306 306 304 303 303
322 321 321 320 319 320 320 320 321 322 322 322 322 321 322 324 324 324 325 325 324 325 326 326 328 328 329 329 329 327 325 318 312 310 311 312 312 311 310 310 310 310 308 306 305 305 305 305 305 305 306 307 308 308 309 306 301 300 300 299 298 297 297 296 297 296 296 296 296 296 296 296 296 298 301 302 302 302 302 302 302 302 302 301 301
320 319 320 319 319 319 318 319 321 322 322 322 322 322 322 323 324 325 325 326 325 327 327 328 328 328 329 329 329 327 326 322 315 310 310 311 311 311 311 311 310 310 308 306 303 302 303 303 303 304 305 306 307 308 308 305 301 299 300 299 298 297 296 296 296 296 296 296 296 296 296 296 296 297 300 302 302 302 301 301 301 301 301 301 300
320 319 320 319 319 319 318 318 320 321 323 324 322 322 322 323 324 325 326 326 327 327 328 327 327 327 328 328 328 327 326 324 319 313 310 311 310 311 311 311 310 310 309 307 303 301 301 301 303 303 304 305 306 307 306 303 300 299 299 299 299 298 296 296 296 296 296 295 295 295 295 295 295 296 297 299 300 301 301 300 301 300 300 300 299
320 320 319 319 319 319 319 318 319 320 323 324 324 323 323 323 325 326 327 328 328 327 328 327 326 326 326 326 327 326 325 325 322 316 312 311 311 310 310 311 310 310 310 308 305 302 301 301 302 303 304 304 305 305 304 301 299 299 299 299 299 298 297 296 296 295 295 295 295 295 295 295 295 295 295 296 297 298 298 298 298 298 298 297 296
321 320 319 319 319 319 319 319 319 319 320 323 324 324 324 324 324 326 327 327 328 328 328 327 326 325 324 325 326 326 325 324 323 320 315 312 311 311 311 310 311 311 310 309 306 303 301 301 302 303 303 303 304 305 303 300 298 299 299 299 299 298 297 297 296 295 295 295 295 295 295 294 294 294 294 294 294 295 295 295 295 295 295 295 294
321 320 319 320 319 319 319 319 319 319 319 320 322 324 324 324 324 325 326 327 327 327 327 327 327 326 324 324 325 326 325 324 323 322 319 315 313 311 311 311 311 311 311 310 308 304 302 301 301 302 303 302 303 304 303 300 298 298 299 299 299 298 298 298 297 295 295 295 295 295 295 295 294 294 294 294 294 294 294 294 294 294 294 294 294
321 320 319 320 320 319 320 319 319 319 319 319 320 321 323 324 324 325 325 326 326 327 327 327 327 327 326 325 324 324 325 324 324 323 321 319 315 313 312 312 312 311 311 311 309 306 302 301 302 302 302 302 302 303 303 301 298 298 299 300 299 299 298 297 297 296 295 295 295 295 295 294 294 294 294 294 294 294 294 294 294 294 294 294 293
320 320 320 320 320 320 320 320 319 320 319 320 320 319 320 322 324 326 326 326 326 326 326 326 326 326 326 326 325 324 324 324 324 323 322 320 318 316 315 314 313 312 311 310 310 308 305 302 302 302 302 302 302 302 303 301 299 298 299 299 299 299 298 297 297 296 295 295 295 295 295 294 294 294 294 294 294 294 294 293 293 293 293 293 293
319 320 320 320 319 319 319 319 320 319 319 319 320 320 320 320 321 324 326 327 327 326 326 326 325 325 325 325 325 325 324 324 324 323 323 321 320 319 317 317 317 315 314 311 310 309 307 303 301 302 302 302 302 302 302 301 299 298 298 299 299 299 298 298 297 296 295 295 295 295 294 294 294 294 294 294 294 294 294 293 293 293 293 293 293
319 319 319 319 319 319 319 319 319 319 319 319 319 320 320 320 320 321 323 324 326 326 326 326 326 326 326 325 325 325 324 324 324 323 323 322 321 320 319 319 319 318 317 314 311 310 308 305 302 301 302 302 301 301 301 301 299 298 298 298 299 299 298 298 297 296 296 295 295 295 294 294 294 293 294 294 294 294 294 293 292 292 292 293 293
318 319 318 318 318 318 318 318 318 318 319 319 319 319 319 320 320 320 320 320 321 322 323 325 326 327 327 326 326 325 324 324 323 323 323 322 321 320 319 318 319 319 319 317 314 311 310 308 304 302 301 302 301 301 301 300 300 299 298 298 298 299 298 298 297 296 296 295 295 295 295 294 294 293 293 293 294 294 294 294 293 292 292 293 293
319 318 318 317 317 317 318 318 318 317 317 318 318 319 319 319 320 320 321 320 319 319 320 322 323 325 327 326 326 325 324 324 323 323 323 322 320 320 319 317 318 319 319 318 317 314 311 310 307 304 302 301 301 301 301 300 300 299 298 298 298 298 298 297 297 296 296 296 295 294 295 294 293 293 293 293 293 293 294 294 294 293 293 293 293
317 317 316 316 316 316 317 317 317 317 317 317 317 317 318 319 319 319 320 320 320 321 321 321 322 322 324 325 325 325 325 324 323 322 322 322 321 321 320 319 318 318 318 318 319 317 313 311 310 307 303 301 301 302 301 301 300 300 299 298 298 298 297 297 297 296 297 297 296 294 295 294 293 293 293 293 293 293 293 294 294 293 293 293 293
317 317 317 316 315 316 316 316 316 316 316 316 316 316 317 317 317 318 319 319 320 321 322 322 322 321 322 322 324 325 325 325 324 323 322 322 321 321 321 320 320 319 318 318 319 318 315 313 312 310 307 303 301 301 301 301 300 300 299 299 298 298 297 297 297 296 297 298 297 295 294 294 294 293 293 293 292 292 293 293 294 294 293 293 293
316 316 315 316 316 315 314 314 315 316 316 316 316 316 316 316 316 317 318 319 319 319 321 321 322 322 321 321 321 322 324 324 324 323 322 322 322 321 321 321 321 320 320 319 319 320 318 314 313 312 310 306 303 301 302 302 301 300 300 299 298 298 297 297 296 296 297 298 298 297 295 294 294 293 293 293 292 292 292 292 293 293 293 293 293
314 314 314 314 315 315 314 314 315 315 316 316 316 316 316 316 316 316 317 318 319 319 319 320 321 322 322 322 321 321 323 323 324 323 323 322 322 321 321 321 321 321 320 319 318 319 319 317 315 313 312 310 306 303 302 301 301 301 300 300 299 298 297 297 296 296 297 298 298 297 295 294 294 293 293 292 292 292 292 292 292 292 293 293 292
313 313 313 313 314 314 314 314 314 314 314 315 316 316 316 316 316 316 316 316 317 317 318 318 319 320 321 322 322 322 322 323 323 323 323 322 322 322 322 321 321 321 321 320 318 317 317 318 317 315 314 312 310 307 304 302 301 301 301 300 300 299 298 297 296 296 296 298 299 298 297 295 294 293 293 292 292 292 292 292 292 292 292 292 292
313 313 313 313 314 314 314 314 314 314 314 315 315 316 316 316 316 316 316 315 315 315 316 316 317 318 319 321 322 322 322 323 323 323 323 322 322 322 322 322 321 321 321 321 320 318 317 317 318 317 316 314 313 311 309 305 302 301 301 301 300 300 298 297 296 296 296 298 299 298 298 296 294 293 293 293 292 292 292 292 292 292 292 292 292
314 314 314 314 314 315 315 315 315 315 315 315 315 315 315 315 315 315 315 315 315 315 314 315 315 316 318 319 321 321 321 322 323 323 323 322 322 322 321 322 321 321 321 321 320 320 320 319 318 318 317 316 315 314 312 309 305 302 301 301 301 300 299 298 297 296 296 297 299 299 298 297 295 294 293 292 292 292 292 292 292 292 292 292 292
314 314 314 314 314 314 314 314 314 315 315 315 315 315 314 314 314 314 314 314 314 314 314 314 314 315 316 317 320 320 320 321 321 322 323 322 322 322 321 321 321 321 321 321 321 321 321 320 320 319 319 317 316 315 314 312 308 304 302 301 301 301 301 299 298 297 295 297 299 299 299 298 297 295 294 292 292 292 292 292 292 292 292 292 292
312 312 312 311 311 312 312 311 311 312 312 313 314 313 314 314 313 314 314 314 314 315 315 315 315 315 315 316 317 319 320 320 320 320 322 322 322 322 322 321 321 321 321 321 321 321 321 320 320 321 320 319 318 317 316 315 312 309 306 303 301 302 302 301 300 298 296 296 298 299 299 299 298 297 296 294 293 293 292 292 292 292 292 292 292
308 308 308 309 308 308 308 308 308 308 309 310 311 311 312 312 312 312 312 312 313 314 315 316 316 316 316 316 316 318 320 320 319 319 320 321 321 321 321 321 321 321 321 321 321 321 320 320 319 320 320 319 318 318 317 316 315 313 311 307 303 302 301 301 300 299 297 295 296 298 299 299 298 298 298 297 296 295 295 294 293 292 292 292 292
306 306 306 307 306 306 306 306 306 306 306 307 307 308 309 309 309 310 310 310 311 312 313 315 316 316 317 318 317 318 319 319 318 317 318 319 319 319 319 320 320 320 321 321 321 321 320 319 319 319 319 319 318 318 318 317 316 315 313 310 306 303 302 302 301 300 298 296 296 297 298 298 298 298 298 298 298 298 297 296 294 293 292 292 292
Wind_Speed
12 12 14 13 13 13 12 11 7 5 7 9 9 9 9 9 9 8 8 8 8 8 7 6 6 7 7 7 8 9 10 11 12 13 14 14 14 12 11 10 9 10 11 12 11 11 11 12 12 12 12 11 10 9 8 6 6 6 6 6 7 7 7 7 7 6 7 6 5 4 2 2 2 2 3 4 4 3 1 1 1 1 2 3 3
15 14 15 15 14 14 13 12 9 7 7 9 10 10 10 9 9 10 9 9 9 9 8 7 7 7 8 8 8 9 9 10 12 13 13 13 12 11 10 10 9 10 11 11 11 11 11 11 11 11 11 11 11 10 10 8 7 7 7 7 7 7 7 6 5 5 5 5 5 4 2 1 1 0 1 1 1 1 2 3 3 3 4 4 4
18 17 17 16 16 16 15 13 11 10 8 9 10 10 9 9 10 10 9 10 10 9 8 8 8 8 8 9 8 8 9 10 11 12 12 13 12 10 11 11 10 11 11 10 10 10 10 10 10 10 10 10 10 10 10 10 9 9 8 8 9 8 8 7 6 6 6 6 5 5 4 2 1 2 2 3 4 4 4 5 5 4 4 4 3
20 19 18 18 17 17 17 15 13 12 10 9 9 9 9 9 10 9 9 10 10 9 9 9 9 9 9 9 9 8 8 9 10 11 12 13 11 11 12 12 11 11 11 11 10 9 9 9 9 10 10 9 10 10 10 9 9 9 9 9 9 9 9 8 8 7 7 7 5 4 5 4 3 3 3 4 6 6 5 4 4 4 3 3 2
22 21 20 19 19 18 18 16 15 13 11 9 8 8 10 11 10 8 8 9 9 9 9 9 9 9 9 10 10 9 8 8 9 10 12 11 9 10 11 11 11 10 10 10 10 9 9 9 10 10 10 10 9 10 10 9 8 8 9 9 10 10 9 9 8 7 6 6 5 5 4 4 4 4 4 4 4 5 4 4 4 3 2 2 1
23 22 21 21 20 19 19 18 18 15 12 9 8 9 10 12 13 9 9 10 10 10 9 9 9 9 10 11 10 9 8 8 9 10 11 11 9 10 10 12 12 11 10 10 9 9 9 9 10 10 10 10 10 10 10 10 9 9 8 9 9 9 9 8 8 6 5 5 6 7 6 5 5 6 6 4 5 4 4 4 4 3 2 1 1
24 24 23 22 21 21 21 20 20 17 14 11 10 11 10 13 14 11 10 10 10 11 9 8 8 9 11 12 11 10 9 9 10 11 12 11 10 11 11 12 12 12 11 10 10 9 9 9 9 10 10 10 10 10 11 11 11 10 9 8 7 8 8 8 7 6 6 6 7 7 7 7 6 6 9 7 6 5 4 3 3 2 2 1 0
24 25 24 24 23 22 22 21 21 19 15 13 12 12 12 13 14 13 12 12 11 11 9 7 7 9 11 12 12 11 11 11 11 12 12 12 12 11 12 12 13 13 12 11 11 10 10 10 10 10 10 10 10 10 10 10 10 10 10 9 8 6 6 7 7 7 7 6 8 8 8 7 6 7 8 8 8 7 6 5 3 2 1 1 3
23 24 24 23 23 23 22 22 22 19 17 15 13 13 14 14 15 14 13 13 12 11 9 7 7 8 10 11 11 11 11 11 11 11 12 13 13 12 13 14 15 16 14 13 12 12 11 12 12 12 11 10 10 10 11 11 11 11 10 10 9 7 6 6 6 7 7 7 7 8 8 8 7 8 9 10 10 9 9 8 7 4 1 4 4
21 22 23 22 22 23 22 22 22 20 18 16 15 14 15 15 15 15 14 14 13 12 10 8 7 8 10 10 10 10 9 9 10 11 12 12 12 12 13 14 16 17 17 16 15 14 13 13 13 13 12 11 10 11 11 12 12 12 12 11 10 9 8 6 6 6 7 7 7 8 9 9 7 5 6 9 9 6 7 10 9 5 3 7 6
19 20 21 21 21 22 23 22 22 20 19 17 16 16 16 16 16 15 15 15 14 13 11 9 9 9 9 10 10 10 8 8 9 10 11 11 11 12 12 14 15 17 17 17 17 16 15 13 12 12 12 11 10 10 11 12 12 12 12 13 12 11 9 8 7 6 7 7 7 8 8 9 8 7 6 8 10 8 7 11 11 7 5 7 9
18 18 19 21 22 23 23 23 22 21 21 19 17 18 18 18 17 16 16 15 14 14 13 11 10 10 9 9 11 10 8 8 9 9 10 10 11 11 12 13 14 16 16 16 17 17 15 13 12 12 12 10 9 10 11 11 12 11 11 12 12 12 10 9 8 7 7 8 8 8 8 9 9 8 7 7 9 9 8 12 14 11 9 8 8
18 17 18 20 22 23 22 22 22 22 22 20 19 19 20 20 20 19 17 15 14 14 14 13 12 12 10 9 10 11 10 8 9 9 10 10 10 10 11 13 14 15 16 16 16 16 14 13 12 12 11 9 8 9 10 11 11 11 11 11 12 12 11 10 8 7 7 7 8 8 9 9 8 8 7 8 7 6 8 12 13 10 9 11 8
16 16 17 19 20 21 22 21 21 22 21 21 20 20 21 22 22 21 18 16 15 15 15 14 14 14 12 10 10 12 11 8 8 9 10 10 9 10 11 13 14 15 16 16 16 15 14 12 11 10 9 8 8 9 10 10 10 10 11 11 12 11 11 11 9 7 6 7 7 7 8 8 8 8 7 7 6 3 7 11 11 10 10 11 5
13 15 16 17 18 19 20 20 21 21 21 21 21 21 22 23 23 22 19 16 16 15 16 16 15 15 14 11 10 12 11 9 8 9 9 9 9 10 12 13 14 16 16 17 16 14 12 11 10 9 8 8 8 9 10 10 11 11 12 13 13 12 11 10 10 8 6 6 7 7 7 8 8 8 7 6 5 2 5 8 9 10 10 8 3
11 13 14 15 16 17 18 19 20 21 22 22 21 21 22 23 23 22 19 16 15 15 15 16 16 16 15 13 11 12 12 9 7 8 9 9 10 11 12 13 14 15 16 17 16 13 10 9 9 9 8 8 9 9 10 11 11 12 13 14 14 13 11 10 9 8 7 7 7 7 8 7 7 8 7 6 5 3 4 6 9 9 7 7 8
9 11 11 12 14 16 17 18 19 20 22 22 22 21 21 22 23 22 20 17 16 15 15 16 16 16 16 15 12 12 12 10 8 8 9 9 10 11 12 12 13 14 14 16 15 10 8 9 9 9 8 7 8 9 11 12 12 13 13 14 14 12 10 8 7 6 7 7 8 8 8 8 7 7 6 5 6 6 4 4 8 10 6 4 7
9 10 10 12 13 15 16 17 18 19 20 21 21 21 21 21 22 22 21 19 17 16 15 15 16 16 16 15 13 12 12 11 9 8 9 9 9 10 11 11 12 13 14 15 14 9 8 8 9 9 8 7 8 10 11 12 13 13 14 14 12 10 8 7 6 6 6 7 8 9 9 8 8 7 6 4 5 6 5 4 5 8 6 4 4
9 10 10 11 12 14 16 17 18 19 20 21 21 22 23 22 23 23 22 20 18 16 15 14 14 14 15 15 14 12 13 12 9 9 9 9 9 9 10 11 12 12 13 14 13 10 8 8 9 9 8 8 9 11 12 13 14 14 14 12 10 9 8 7 6 6 6 6 7 8 8 8 8 8 6 4 4 5 5 4 3 4 5 4 5
11 10 10 10 11 13 15 17 18 19 20 21 21 23 24 24 23 23 22 21 19 18 16 15 14 14 14 15 14 13 14 13 10 9 9 9 9 9 10 11 12 12 13 14 12 11 9 9 9 9 8 9 10 11 12 14 14 13 11 9 8 8 7 6 6 5 5 6 6 7 7 7 8 8 6 4 4 4 5 5 4 3 4 5 5
11 11 10 9 9 11 14 16 18 19 20 21 22 23 25 25 25 24 23 22 22 20 18 16 15 14 14 14 14 14 14 14 11 9 9 9 9 9 10 10 11 12 13 13 12 10 10 10 10 10 9 9 10 12 13 14 14 12 9 8 8 7 6 5 5 5 5 5 5 5 5 6 7 7 6 5 4 5 6 6 7 5 4 6 5
10 11 11 10 9 9 11 14 16 18 20 21 22 23 24 25 26 25 24 24 23 21 19 17 15 14 14 14 14 15 16 15 12 10 9 9 9 9 10 10 11 12 13 14 12 10 10 10 11 11 10 10 11 13 14 15 14 11 8 8 8 7 6 6 5 5 5 4 5 5 5 6 7 7 6 5 5 5 5 7 8 7 6 6 5
11 10 11 11 11 11 11 13 14 16 18 20 21 23 24 24 25 25 25 24 23 21 19 18 17 15 14 14 15 17 17 15 13 10 9 9 8 9 10 10 11 12 14 14 12 10 10 11 11 11 11 10 11 13 15 15 13 11 9 8 8 8 7 6 6 6 5 4 4 4 4 5 6 6 6 5 5 4 3 4 6 6 5 5 5
12 11 12 12 12 12 13 14 15 15 17 19 20 22 23 24 24 25 25 24 23 22 21 20 19 18 17 16 16 18 18 16 14 11 9 9 8 9 10 10 11 13 14 14 12 9 9 10 11 12 11 10 11 13 15 15 13 10 9 8 8 8 7 6 6 6 5 5 5 5 4 5 6 6 6 5 4 2 1 1 2 3 3 4 4
12 10 11 10 10 12 14 16 18 18 18 18 20 22 23 23 24 24 24 24 23 23 22 21 20 19 19 18 17 18 18 17 14 11 10 10 9 8 10 10 11 13 14 14 11 9 9 10 11 11 10 10 10 12 15 15 12 10 8 7 6 6 5 5 4 5 5 4 5 5 5 5 5 5 5 5 5 4 4 3 3 3 3 3 3
11 8 8 8 8 11 12 14 17 20 21 21 20 22 24 24 24 23 23 23 23 23 23 23 22 21 21 19 18 18 17 16 15 12 11 10 9 9 10 10 11 12 13 12 10 9 9 10 10 10 10 9 9 12 14 14 11 9 7 6 5 4 4 5 4 4 3 3 4 4 4 4 4 3 4 5 5 5 4 3 2 1 2 3 3
7 5 8 10 11 13 14 15 17 20 22 23 22 22 25 25 24 23 23 23 23 23 23 23 23 22 21 20 19 18 16 16 15 13 11 11 10 10 10 11 11 12 12 11 10 8 8 9 9 9 8 8 9 11 14 14 11 8 6 5 4 4 5 5 5 4 4 3 3 3 3 3 3 2 3 4 4 4 2 1 1 2 2 3 3
5 6 8 11 12 14 15 16 17 19 21 22 19 18 21 23 23 23 23 21 21 22 22 22 22 21 21 20 19 18 16 15 16 14 12 12 11 10 11 11 11 11 10 10 9 8 8 8 8 8 7 7 9 11 13 13 10 7 6 5 4 4 4 5 5 5 4 4 3 3 3 3 2 1 1 2 3 3 2 0 2 2 1 2 3
4 6 8 11 13 14 15 15 16 17 19 19 15 12 15 17 19 21 21 18 17 18 20 19 20 20 19 18 18 17 16 16 17 16 14 13 12 11 11 12 12 10 9 9 9 8 8 8 8 7 7 7 8 11 12 12 9 7 6 5 4 4 4 4 4 5 5 5 4 3 3 3 2 1 1 1 2 2 2 1 0 1 0 2 2
7 8 9 11 13 15 15 16 15 15 15 15 11 8 9 12 14 16 16 15 13 14 16 17 17 17 16 16 17 18 17 17 17 17 16 14 14 12 12 13 13 11 9 8 8 8 7 7 8 8 7 7 8 10 11 11 9 6 5 5 4 4 3 4 4 5 5 5 5 5 4 3 2 1 1 1 2 2 1 1 1 1 2 3 3
8 9 9 11 14 16 17 18 18 16 13 9 7 5 7 9 11 12 13 13 12 13 14 15 15 14 14 15 17 19 19 18 17 18 17 16 15 14 13 14 14 12 9 8 7 6 6 6 7 7 6 7 8 9 10 9 8 6 5 4 4 3 3 4 4 5 5 5 6 6 5 4 3 2 0 1 1 2 2 2 3 3 4 5 5
7 8 10 11 13 15 17 19 20 20 16 10 4 3 5 7 9 11 12 12 13 13 14 15 14 13 13 15 17 19 19 17 17 19 19 18 16 15 15 15 15 13 10 9 7 6 5 5 6 6 5 6 7 8 8 8 7 6 5 4 4 3 3 3 3 4 4 4 4 5 5 5 4 3 2 1 1 2 2 3 4 5 5 6 5
6 8 9 11 12 13 15 18 20 20 19 15 10 6 4 5 7 10 11 11 12 13 15 16 14 13 14 16 17 18 18 17 17 18 19 19 19 17 16 16 15 14 12 10 8 7 6 6 6 5 5 5 6 7 7 7 7 6 5 4 3 3 2 2 2 2 2 2 2 3 4 4 3 3 3 2 2 2 2 3 4 4 4 4 3
6 6 8 10 12 13 13 15 17 19 19 17 13 9 6 6 8 10 11 11 11 13 14 16 16 15 14 16 18 19 18 17 17 18 19 20 20 19 18 17 16 15 14 12 10 8 7 6 6 6 5 6 6 6 7 7 7 7 6 5 3 2 2 2 1 0 0 0 1 1 2 3 2 2 2 2 2 1 1 2 2 2 2 2 2
8 6 7 10 13 14 14 14 14 15 16 16 15 11 8 7 9 10 11 11 11 12 13 14 16 17 16 17 18 19 20 20 19 19 20 20 20 20 19 18 17 16 15 14 12 10 8 7 8 7 6 6 6 7 7 7 7 8 7 6 5 3 1 1 1 1 2 2 2 1 1 1 2 2 2 2 2 2 2 2 2 2 1 0 0
11 10 9 11 13 15 16 15 14 13 13 14 14 13 11 9 8 9 10 10 10 11 12 12 14 16 17 17 18 19 21 22 22 22 22 21 21 21 20 19 18 17 16 16 15 13 10 9 9 9 8 7 7 7 8 7 8 8 8 8 6 4 3 1 0 1 2 3 3 2 1 0 1 2 2 2 2 3 4 5 4 3 2 2 2
12 11 11 11 13 15 16 16 15 14 13 13 12 12 12 12 11 10 10 11 12 12 13 13 13 14 15 16 18 19 21 23 24 25 24 23 22 20 20 19 18 17 17 17 16 14 12 10 10 10 9 8 8 8 8 8 8 9 9 9 8 6 5 2 1 2 3 3 3 3 2 1 1 2 2 2 2 3 5 5 4 3 3 3 3
12 13 14 14 15 16 16 17 16 16 15 14 13 12 11 11 12 11 11 11 12 14 15 15 15 14 14 14 16 18 20 23 25 25 26 27 25 23 22 20 18 17 17 17 16 15 14 12 11 11 10 10 9 9 9 9 9 9 9 9 9 8 7 5 3 3 3 4 4 4 3 2 1 1 2 1 1 3 5 5 4 4 4 4 4
15 18 20 19 18 18 17 17 17 16 16 16 15 15 13 12 13 12 11 11 12 12 14 15 15 15 14 14 15 16 18 21 23 25 28 28 26 25 23 20 19 19 18 18 18 17 16 15 13 12 12 11 11 11 11 11 10 10 10 10 10 9 8 7 5 4 4 5 5 5 5 4 3 1 1 1 1 3 4 4 4 4 4 4 5
16 17 19 18 17 17 16 16 17 17 17 17 16 16 16 15 15 14 13 12 12 12 13 13 14 14 14 14 15 15 16 18 20 22 26 26 25 24 22 18 17 17 17 19 20 19 19 17 14 14 14 13 13 13 12 11 11 11 11 11 11 10 9 8 6 5 5 5 6 6 6 5 4 3 2 1 1 1 3 4 4 4 4 4 4
16 16 19 17 15 15 16 15 17 17 17 18 18 18 18 17 17 16 15 14 14 15 15 15 15 15 15 15 15 15 15 16 17 19 23 24 25 25 24 21 20 19 18 20 20 20 20 19 16 15 15 14 14 14 14 13 12 12 12 12 12 10 9 8 7 7 6 6 6 7 7 6 6 5 4 3 2 1 1 3 3 3 3 2 2
19 19 22 22 19 18 19 19 19 18 17 17 18 18 18 18 19 19 17 16 16 17 17 18 18 17 17 16 16 16 16 16 17 19 20 21 23 24 25 26 26 24 22 21 20 20 21 21 19 17 17 16 16 15 16 15 14 13 13 13 12 11 10 10 9 9 7 6 6 7 8 8 7 7 6 5 3 3 2 2 2 1 0 1 1
17 16 18 19 17 16 16 17 19 19 17 16 17 18 19 19 19 19 19 18 18 18 18 19 19 19 18 17 16 16 16 17 18 19 20 21 22 23 24 26 28 29 27 24 21 21 22 22 21 20 19 17 17 17 18 17 16 15 14 13 13 12 12 11 11 10 8 6 6 8 9 10 9 9 8 7 5 4 3 2 2 2 1 1 2
11 11 12 13 12 12 13 14 16 17 18 18 19 19 20 20 19 19 19 19 19 19 19 20 20 21 20 19 18 18 17 17 18 19 21 22 22 22 24 25 27 31 30 26 23 23 24 23 23 23 22 20 19 18 19 19 18 17 16 15 14 14 13 13 12 10 9 8 8 8 9 10 11 11 10 9 7 6 5 4 3 3 3 3 2
11 12 13 14 14 14 16 16 16 17 19 19 19 20 20 20 20 20 20 21 21 22 21 20 20 20 21 21 21 20 19 19 19 20 21 22 22 23 24 24 26 29 30 29 26 24 24 24 25 25 24 23 21 20 19 20 19 19 18 17 16 16 15 14 13 12 11 11 9 8 8 10 12 12 12 11 10 8 7 6 5 5 5 4 4
14 14 14 14 14 15 15 16 16 17 17 17 17 17 18 19 20 21 22 23 23 24 24 24 22 21 20 21 21 21 21 20 20 21 21 22 23 24 24 25 26 27 28 30 30 26 23 25 28 28 26 25 24 22 21 20 20 20 20 19 18 17 17 16 15 14 13 13 12 10 10 11 12 14 14 13 11 10 9 8 8 7 6 6 5
13 12 12 13 14 14 15 15 15 15 15 15 15 15 15 17 19 21 23 24 25 26 26 27 26 24 22 20 20 20 20 20 22 23 23 24 25 26 27 28 27 27 27 28 30 29 27 27 28 27 27 26 26 25 23 22 21 22 22 21 20 20 19 18 18 17 17 16 15 13 12 11 12 14 15 15 14 13 12 11 10 9 8 8 7
12 12 12 12 13 13 14 14 15 15 16 17 17 16 17 17 18 19 21 23 25 26 26 26 27 26 25 23 21 20 19 20 21 22 23 24 25 26 28 29 29 29 28 27 28 28 29 28 27 26 26 26 26 26 25 23 22 22 22 22 22 21 21 20 20 19 19 19 18 17 15 15 15 16 17 17 17 16 15 14 12 11 10 9 9
12 11 11 11 11 11 12 13 14 15 15 16 17 17 17 17 17 18 19 20 20 21 22 23 24 24 24 23 22 21 21 21 21 21 20 22 24 25 26 27 29 29 29 28 28 27 26 26 26 27 28 29 28 26 22 19 20 21 21 21 21 21 20 19 19 20 21 21 21 21 20 19 18 18 17 18 18 18 18 16 15 14 13 12 11
11 11 10 10 11 11 11 12 13 14 15 16 15 15 15 15 15 16 17 17 17 17 18 19 20 20 21 21 21 21 21 21 21 20 20 21 23 24 25 26 28 28 28 29 29 28 27 26 25 27 29 29 27 24 19 16 18 19 18 19 20 20 19 18 19 20 22 23 23 24 23 22 21 20 19 19 18 18 18 18 17 16 15 13 12
13 13 12 12 12 12 12 13 12 13 14 16 17 17 16 16 16 16 16 17 17 17 17 18 18 18 18 19 20 21 20 19 19 20 22 23 23 25 25 24 26 27 28 29 28 27 28 28 27 27 27 24 23 23 21 18 17 17 16 16 18 19 20 20 20 21 23 24 25 25 25 24 23 22 21 20 19 18 17 17 17 18 16 15 13
Wind_Direction
228 225 221 218 217 211 205 204 206 207 202 200 204 209 210 213 223 232 249 263 275 282 284 287 285 293 305 314 319 317 318 322 327 332 335 338 340 340 343 349 360 6 4 3 4 6 9 11 10 8 7 7 6 4 3 2 354 341 329 322 314 311 311 310 310 304 290 281 277 279 292 324 319 303 284 266 255 262 292 333 26 65 97 114 127
228 224 220 222 223 217 212 208 203 199 201 205 208 211 213 220 229 237 252 264 272 277 275 273 269 277 293 303 308 310 315 323 329 333 337 341 341 342 349 353 356 360 1 2 3 5 7 8 8 7 5 4 2 359 353 347 343 337 332 327 323 319 317 314 313 307 292 278 265 259 236 105 81 136 220 211 186 115 97 107 113 118 130 136 132
228 225 220 219 222 221 216 212 209 205 202 207 210 208 212 224 231 238 249 258 264 270 270 269 270 278 290 299 305 308 316 322 327 332 336 341 346 353 0 360 358 356 356 359 3 6 9 8 9 7 6 3 0 356 350 343 336 331 324 318 316 315 313 311 308 304 299 292 272 255 243 214 137 129 138 126 113 110 115 118 125 134 133 131 128
227 226 223 218 217 220 220 216 214 214 210 210 213 209 211 227 237 240 248 258 266 271 275 278 284 296 308 314 313 311 314 316 319 325 331 339 349 357 359 359 359 353 348 349 356 3 7 9 8 7 4 3 1 358 351 344 337 332 328 320 314 311 309 308 305 300 299 297 281 258 248 234 212 162 134 122 115 114 122 124 120 120 121 127 142
225 224 225 221 217 218 220 221 220 220 217 213 215 211 209 227 242 250 257 265 271 274 281 286 294 312 324 323 316 310 308 309 316 325 332 340 346 351 354 354 353 349 341 341 348 356 360 2 4 5 3 2 0 358 353 347 340 335 331 326 322 318 314 311 308 301 295 290 277 268 260 241 227 193 156 130 125 132 137 140 140 138 142 166 202
225 225 226 225 223 222 223 224 224 223 221 217 216 209 208 225 239 253 265 269 270 270 278 287 300 321 328 324 317 310 307 314 324 330 334 339 342 347 349 345 345 346 342 339 342 349 354 355 357 359 360 0 360 356 352 349 345 340 336 331 328 324 321 318 315 305 292 285 276 271 265 259 249 223 210 180 140 145 148 148 159 159 163 212 238
224 225 226 227 227 227 227 227 227 225 221 221 219 210 208 222 233 248 266 270 268 267 272 287 306 323 325 322 318 313 313 320 324 327 332 337 340 344 344 340 340 342 342 340 339 343 348 349 349 352 353 355 356 353 350 350 349 349 347 344 339 332 325 321 317 307 293 286 282 279 274 273 271 249 236 216 176 161 143 137 160 168 169 196 303
220 222 225 227 228 229 230 230 231 229 224 224 220 211 210 219 231 248 265 270 269 264 267 285 306 316 317 316 315 313 315 318 319 324 329 333 336 339 342 343 344 345 343 340 339 341 345 346 345 346 347 348 349 348 348 352 354 355 356 355 354 349 335 325 321 314 306 297 291 288 287 285 269 241 235 238 222 187 151 132 148 185 206 12 17
220 223 225 227 229 230 232 233 234 232 228 227 223 217 217 222 233 248 259 265 267 260 259 275 292 301 306 309 309 307 310 315 320 324 327 330 334 337 340 344 349 352 350 348 345 343 342 343 343 342 343 344 346 346 348 352 357 1 2 2 2 3 355 339 330 323 316 311 302 297 294 287 266 238 227 233 228 195 165 153 152 162 110 39 25
221 224 226 229 230 230 233 235 236 233 228 227 226 225 226 228 236 246 254 260 261 255 255 264 274 285 296 301 301 300 307 316 320 320 321 326 331 332 336 340 344 347 350 353 352 348 343 339 338 338 337 339 343 347 349 352 358 1 1 1 2 7 9 2 349 338 329 321 310 303 298 294 294 277 239 226 225 206 173 166 170 181 128 86 80
221 221 223 227 229 228 231 234 236 232 227 226 227 230 232 232 237 245 253 256 255 252 253 258 265 275 289 301 303 302 308 315 316 314 315 320 324 326 331 336 337 339 343 347 348 348 344 338 334 332 330 333 340 345 347 350 358 3 360 358 358 1 7 8 5 357 344 334 322 312 305 303 306 305 278 241 227 217 185 172 175 177 146 111 98
223 220 217 220 223 224 226 230 234 233 229 227 228 232 235 234 237 243 249 252 252 251 252 256 263 270 282 299 305 306 307 310 311 310 311 314 318 321 326 331 333 335 337 339 341 343 343 338 332 327 327 331 339 344 346 348 355 1 0 360 360 358 357 358 3 3 351 339 332 325 317 312 308 305 300 270 236 223 210 186 169 152 133 120 102
226 223 217 217 218 220 222 224 228 231 231 231 231 234 236 236 236 239 245 249 249 250 252 255 259 265 275 291 302 305 306 309 310 308 307 309 314 318 322 328 331 331 332 334 336 339 339 335 327 324 327 335 342 343 344 347 353 358 358 1 1 357 353 348 349 355 350 339 335 331 325 321 317 309 297 280 259 230 218 197 172 160 143 128 111
230 228 221 217 216 217 219 221 224 227 229 231 231 232 234 235 236 236 239 245 247 249 250 253 256 260 268 283 298 303 304 311 314 309 306 308 314 318 321 327 329 328 329 331 333 335 334 328 323 324 331 340 344 342 342 345 350 352 352 355 357 354 350 346 341 341 341 334 332 334 335 335 330 319 300 288 288 249 224 209 183 173 157 138 123
233 231 226 221 218 217 219 221 222 225 227 229 230 230 231 234 236 236 237 241 246 248 249 251 254 258 265 276 292 300 305 315 318 312 309 311 314 317 321 326 328 328 331 333 333 332 328 320 318 325 334 340 341 340 339 341 344 348 349 350 350 348 345 341 337 332 328 324 324 328 333 339 339 332 316 304 308 279 245 234 209 188 164 153 173
238 236 233 228 223 219 220 222 223 224 226 228 228 228 230 233 235 236 236 241 246 249 250 251 254 258 262 270 283 295 303 313 319 313 310 311 314 319 324 326 328 330 336 339 338 333 324 315 315 324 333 341 342 340 338 338 341 344 346 347 346 343 342 338 333 326 321 319 319 322 329 336 343 343 330 319 319 305 266 238 222 213 188 173 175
248 246 242 235 231 226 222 223 225 226 227 229 229 229 230 233 236 237 236 238 242 244 248 251 253 257 260 265 274 288 299 309 318 315 310 311 316 323 327 328 331 334 339 345 346 337 322 314 317 326 334 345 347 342 338 335 336 338 339 342 343 344 347 348 343 330 318 315 315 319 327 335 342 346 338 322 320 317 291 236 218 218 228 225 183
268 261 254 245 238 234 230 228 227 228 230 232 232 232 233 235 238 238 236 237 239 243 249 253 256 260 261 263 269 282 294 304 313 315 310 312 319 326 329 330 334 336 340 349 351 338 319 314 323 333 339 348 347 339 337 333 331 334 337 339 345 351 360 6 4 348 328 316 313 313 318 326 332 339 341 321 308 313 302 274 243 230 239 277 249
283 274 266 255 245 238 235 232 230 232 234 235 235 234 234 236 239 239 237 237 240 244 249 254 258 262 263 263 266 275 286 296 306 312 309 311 318 326 332 334 335 336 340 350 350 336 316 312 326 338 342 343 340 337 336 333 331 334 335 339 348 357 4 10 6 353 336 322 314 309 310 319 327 334 342 333 304 304 303 303 299 257 245 263 283
290 285 279 269 259 248 242 238 236 236 236 237 237 236 236 237 239 241 240 239 241 243 246 250 256 262 264 263 263 268 278 289 299 306 305 308 316 325 334 335 333 334 339 345 346 336 319 312 322 334 337 336 336 337 334 332 334 335 336 342 349 353 357 0 358 344 330 322 315 314 316 320 327 332 339 338 310 294 295 299 303 292 269 255 262
289 289 286 277 268 258 250 246 243 241 241 241 240 238 238 239 241 243 244 244 244 245 246 250 255 261 264 263 262 263 270 280 291 297 299 305 314 324 332 333 330 331 335 339 340 332 321 313 317 326 332 332 333 334 333 335 340 342 343 345 343 343 343 342 342 334 324 322 320 322 326 323 325 328 331 336 318 285 269 272 278 277 266 253 250
289 289 289 287 283 274 263 255 249 248 248 247 246 244 243 242 243 245 246 247 248 250 250 251 254 260 266 267 262 260 262 271 282 288 292 300 312 323 328 329 327 326 330 334 332 324 314 309 312 321 327 328 329 332 336 339 344 344 341 338 332 328 326 321 320 320 318 319 319 320 322 320 321 323 324 331 330 303 266 253 259 258 246 239 234
288 283 282 285 286 285 278 269 261 258 257 256 253 251 249 248 248 249 249 250 252 254 254 253 253 256 265 267 261 256 257 264 274 279 285 294 306 319 325 326 325 323 326 329 327 316 305 300 305 314 319 322 328 336 342 343 343 343 336 328 323 318 315 312 308 307 308 307 305 305 309 313 315 317 320 325 333 323 276 238 237 236 225 210 206
290 281 280 284 288 293 295 291 283 276 272 269 265 262 258 256 254 253 254 255 256 256 254 254 255 256 261 264 262 256 253 256 265 270 278 289 299 312 321 323 322 322 323 326 323 313 300 295 299 308 314 321 331 340 345 344 344 345 337 326 320 318 315 313 307 303 302 299 294 293 297 304 309 313 325 345 359 11 82 133 176 185 173 173 189
320 317 318 317 309 305 306 303 299 296 289 281 278 276 271 265 262 261 261 261 260 260 258 257 257 258 260 263 264 260 253 252 258 262 268 282 295 307 315 319 320 321 322 322 319 307 297 294 298 307 313 323 335 340 344 347 347 347 344 334 329 332 335 334 323 313 307 301 297 295 296 301 308 320 343 12 33 55 77 91 113 135 148 176 211
343 348 342 328 304 294 293 290 289 293 294 290 286 284 279 272 268 266 266 266 265 264 263 261 260 259 258 261 264 264 256 250 253 257 261 274 291 301 309 314 316 319 321 318 313 301 291 290 296 303 310 321 331 335 342 348 350 351 354 352 351 4 13 7 356 341 328 316 309 305 307 312 312 330 5 31 48 58 74 93 113 151 183 217 262
335 328 315 313 313 310 307 299 289 285 285 286 286 284 280 277 274 272 271 269 267 266 265 264 262 259 258 259 263 266 261 251 250 252 256 266 281 292 301 308 312 317 318 312 307 296 284 284 290 295 303 315 324 329 338 347 353 360 9 10 10 24 31 23 12 2 352 342 333 326 328 329 321 333 19 49 63 67 82 135 216 240 244 261 285
315 326 323 330 337 333 327 320 310 298 286 282 285 286 283 279 276 275 275 273 269 266 265 264 262 258 256 258 261 264 262 252 247 248 252 261 272 282 292 300 306 314 313 306 301 291 279 278 281 287 298 311 318 324 333 343 351 3 15 21 18 21 36 36 22 13 3 352 350 347 341 335 325 330 37 75 85 92 100 239 253 239 267 306 306
6 3 352 352 353 345 338 331 324 315 298 286 287 299 302 295 286 279 277 275 269 264 263 263 260 256 254 256 258 258 258 251 244 243 247 255 265 273 283 292 300 308 307 302 296 284 274 271 272 282 296 307 314 320 328 337 345 357 10 21 25 19 31 40 33 27 21 12 6 2 354 345 333 310 149 118 112 116 105 77 89 176 34 338 319
43 28 17 12 9 3 356 349 341 332 310 290 284 294 299 298 296 290 282 276 268 263 263 262 260 257 252 252 253 253 253 250 244 242 244 250 258 264 274 284 292 300 301 300 296 283 269 268 271 281 294 303 309 316 324 332 338 347 2 16 27 21 17 27 35 36 33 28 24 17 8 359 354 353 186 168 159 173 155 121 177 217 259 291 298
49 40 31 22 16 13 11 8 5 358 340 308 287 275 264 272 291 298 291 281 269 265 266 265 263 257 250 248 249 249 250 250 246 244 243 246 253 258 265 275 284 292 295 294 293 281 264 265 273 279 291 302 308 314 321 325 328 337 352 8 18 18 11 13 26 36 36 36 34 30 25 18 17 30 57 208 219 241 252 256 260 268 280 287 291
47 43 36 26 17 13 14 15 15 12 6 359 350 312 281 286 300 304 298 287 273 267 268 268 264 255 246 244 245 246 248 248 246 244 243 245 250 253 258 266 275 284 288 287 288 283 265 260 269 274 284 298 305 311 316 317 317 322 334 352 5 9 11 5 11 30 39 39 42 45 42 36 31 40 51 38 338 296 288 286 284 284 287 288 286
35 38 36 28 16 11 13 14 16 18 16 13 12 6 339 302 295 300 302 294 282 275 274 273 269 258 246 242 243 244 244 245 246 245 245 245 246 249 253 260 269 277 282 282 283 284 271 260 262 267 272 285 295 302 308 309 304 305 312 327 343 358 10 6 3 28 34 31 41 48 41 39 40 43 51 51 33 359 321 303 294 287 288 286 277
35 37 33 24 13 10 10 9 12 16 19 18 14 8 352 309 294 299 305 301 291 284 282 280 276 268 253 243 241 241 240 239 241 244 246 247 245 247 250 255 261 268 275 281 283 282 275 261 255 258 262 271 282 289 296 299 293 290 293 299 306 331 14 28 41 145 220 296 338 12 22 36 44 37 41 56 54 32 356 327 314 304 304 293 264
21 23 19 14 11 9 7 7 8 9 12 16 15 10 355 323 308 306 307 306 300 291 286 283 279 275 266 253 245 241 239 237 238 240 244 246 246 245 246 250 255 262 271 279 281 279 273 261 252 251 254 262 271 278 284 287 283 279 276 278 284 295 328 47 68 209 222 240 260 282 338 32 48 39 41 59 70 69 58 39 21 2 352 320 198
18 16 11 8 9 8 4 2 3 3 2 4 8 10 4 345 326 314 311 311 306 297 292 288 284 279 274 267 257 248 243 240 239 240 241 243 244 243 243 245 251 258 264 270 276 278 276 266 256 250 249 253 259 267 273 275 272 269 267 266 270 275 272 252 160 222 231 242 248 243 234 218 60 56 60 66 76 79 69 58 45 38 52 77 85
20 15 11 8 4 2 1 358 357 357 356 354 356 359 360 357 349 332 321 314 304 299 298 294 292 289 283 279 271 260 252 246 243 242 241 240 240 240 239 241 246 253 259 266 274 278 277 268 259 252 248 247 251 258 264 265 261 260 262 262 263 267 270 266 239 225 235 244 240 220 210 198 117 79 74 69 75 82 74 65 58 55 62 71 71
9 0 354 350 344 342 347 350 350 351 350 349 348 346 346 348 348 342 336 325 310 301 298 294 293 293 290 288 281 272 264 256 250 247 245 242 240 240 239 239 245 253 260 265 271 276 274 268 261 255 250 245 246 252 256 256 254 254 256 257 258 261 263 263 260 245 238 241 236 222 215 206 178 115 85 66 65 85 83 75 70 67 65 68 68
353 348 341 337 333 329 330 336 341 345 345 343 341 341 339 335 334 331 329 329 327 321 311 302 298 294 289 287 283 277 272 266 259 256 253 249 247 248 246 246 250 257 262 264 266 269 271 268 262 256 252 247 245 248 252 252 249 247 249 252 252 254 255 257 262 262 249 244 238 230 222 213 201 176 131 90 62 84 88 80 78 81 77 70 67
329 335 331 327 328 326 324 328 333 334 336 334 330 330 332 331 329 324 315 315 324 329 324 315 307 300 293 287 282 278 275 272 268 264 260 254 250 249 247 245 247 253 260 263 263 263 265 266 263 256 252 249 247 248 250 250 246 243 244 246 247 250 251 251 257 263 257 249 242 235 227 217 210 204 184 161 112 95 95 88 89 98 96 86 74
311 323 326 324 328 333 328 325 326 323 323 324 321 319 320 320 321 321 316 311 311 311 310 310 307 303 299 293 287 281 276 274 272 268 264 259 255 251 246 241 240 248 256 257 257 259 259 259 260 257 252 249 247 247 250 250 246 242 240 241 243 246 246 247 250 254 251 248 243 237 229 220 214 210 204 195 183 174 124 104 104 109 107 93 73
296 300 305 306 315 327 326 325 326 322 316 318 320 320 321 320 318 318 315 309 303 298 296 297 299 300 300 298 293 285 278 274 270 265 263 262 260 257 252 245 241 246 251 250 250 253 254 254 256 255 252 249 245 244 248 249 247 243 240 239 241 240 238 239 242 243 242 245 247 238 227 221 217 213 212 206 196 199 193 147 134 141 143 17 15
301 296 298 301 306 315 320 324 326 322 319 322 323 324 328 328 325 323 318 310 303 296 289 287 289 292 295 297 296 291 283 276 270 265 261 260 259 258 255 249 243 244 248 248 249 249 248 249 252 252 251 250 245 242 244 246 247 245 241 238 237 236 233 233 236 239 237 237 243 238 227 220 215 211 212 211 209 209 208 198 200 214 247 286 312
321 319 321 324 323 321 326 330 327 325 326 326 324 323 325 327 327 328 324 318 314 309 301 293 288 286 287 290 292 291 287 281 277 271 264 261 258 255 254 251 247 245 246 246 246 248 246 245 248 251 250 250 248 245 243 243 246 246 243 239 235 232 231 231 232 233 229 228 234 235 229 224 218 213 211 211 211 214 213 215 225 235 245 259 267
332 331 331 332 330 327 328 329 328 327 326 323 320 319 319 319 321 322 321 319 318 317 315 312 305 295 288 285 286 286 284 282 280 276 270 266 262 256 251 248 247 247 246 242 241 246 249 247 246 247 249 249 249 248 246 243 243 244 244 242 236 233 231 231 231 229 225 226 229 226 224 223 219 215 213 212 213 215 217 222 230 235 242 248 247
333 333 332 330 326 322 321 321 321 319 316 315 316 316 316 315 315 315 316 317 316 314 313 314 315 312 301 288 282 282 282 281 279 278 276 273 269 264 257 252 247 246 246 243 241 244 247 247 244 243 244 247 248 248 248 246 243 242 242 242 239 235 231 229 230 228 223 223 224 222 221 222 220 219 218 216 215 218 220 225 230 234 238 241 238
333 331 327 322 319 317 314 314 314 310 307 308 312 315 317 315 313 312 312 312 312 312 310 308 309 312 309 296 282 276 279 281 279 277 276 274 271 267 263 258 253 249 248 245 244 243 243 245 246 244 242 243 245 245 246 245 242 240 239 239 240 238 233 228 227 224 220 219 219 220 220 219 219 220 219 217 216 217 220 225 230 233 238 238 234
324 324 323 319 317 315 314 315 314 311 308 307 309 314 317 316 316 315 313 311 310 309 307 306 305 305 306 302 289 276 272 276 279 279 278 276 274 272 269 267 265 262 259 255 250 246 244 245 247 245 241 240 241 242 242 243 242 240 238 237 238 239 237 233 228 223 219 217 216 216 217 217 217 217 218 217 217 218 220 224 228 232 235 235 231
321 323 325 324 324 324 325 327 326 323 319 314 311 313 313 313 315 314 312 312 311 307 302 302 301 299 298 299 295 285 275 272 276 280 280 277 274 274 275 275 275 273 270 267 262 257 253 251 249 247 245 242 240 239 239 243 248 248 244 241 240 242 244 242 235 227 222 219 219 218 218 219 220 220 220 219 219 220 222 223 224 227 230 231 232
329 326 322 321 324 326 328 332 334 334 332 327 322 319 317 316 316 317 317 315 314 312 306 299 296 294 290 287 287 285 278 272 272 276 280 277 275 275 276 276 277 276 275 272 268 265 264 263 259 256 255 254 253 252 252 255 257 256 252 248 245 244 245 245 239 232 227 225 224 224 224 224 225 225 225 225 224 225 226 226 226 228 230 231 230
342 337 330 326 325 325 327 331 334 336 337 334 331 327 324 322 320 320 323 324 322 321 317 308 302 299 291 283 278 276 276 275 271 270 274 275 274 274 273 273 275 276 275 273 269 266 265 265 263 262 263 265 266 265 262 259 258 257 253 248 244 240 238 237 235 233 231 230 229 228 228 229 230 230 231 232 232 232 230 229 229 230 232 233 230